Regional Weather Roundup
Issued by NWS Cleveland, OH

Home | Current Version | Previous Version | Graphics & Text | Print | Product List | Glossary On
Versions: 1 2 3 4 5 6 7 8 9 10 11 12 13 14 15 16 17 18 19 20 21 22 23 24 25 26 27 28 29 30 31 32 33 34 35 36 37 38 39 40 41 42 43 44 45 46 47 48 49 50
000
ASUS41 KCLE 201210
RWRCLE
OHIO REGIONAL WEATHER ROUNDUP
NATIONAL WEATHER SERVICE WILMINGTON, OH
800 AM EDT WED AUG 20 2014

NOTE: "FAIR" INDICATES FEW OR NO CLOUDS BELOW 12,000 FEET WITH NO
SIGNIFICANT WEATHER AND/OR OBSTRUCTIONS TO VISIBILITY.

OHZ001>008-015>018-024>027-034-035-043-044-201300-
   NORTHWEST OHIO

CITY           SKY/WX    TMP DP  RH WIND       PRES   REMARKS
DEFIANCE       SUNNY     67  64  90 SW3       29.85R FOG
FINDLAY        SUNNY     69  65  86 SW6       29.85R
TOLEDO EXPRESS SUNNY     67  66  97 W7        29.83R FOG
TOLEDO METCALF SUNNY     67  64  90 SW5       29.84R
LIMA           SUNNY     69  65  86 SW8       29.87R
$$

OHZ009>014-019>023-028>033-038-089-201300-
   NORTHEAST OHIO

CITY           SKY/WX    TMP DP  RH WIND       PRES   REMARKS
CLE-HOPKINS    CLOUDY    67  65  93 SE9       29.88S
CLE-LAKEFRONT  LGT RAIN  68  65  90 S9        29.85S
CUY CO. ARPT   CLOUDY    68  66  94 S12       29.88R
LORAIN-ELYRIA  PTSUNNY   69  64  84 S6        29.88R
ASHTABULA      LGT RAIN  65  63  93 S9        29.89S
AKRON-CANTON   TSTM      67  64  90 SE8       29.91F
WOOSTER        CLOUDY    65  63  93 SE5       29.90S
MANSFIELD      PTSUNNY   67  66  97 SW3       29.89R
YOUNGSTOWN     TSTM      66  63  90 SW10      29.93R FOG
$$

OHZ042-051>053-060>062-070>072-077>081-201300-
  SOUTHWEST OHIO

CITY           SKY/WX    TMP DP  RH WIND       PRES   REMARKS
CINC-COVINGTON PTSUNNY   67  64  90 CALM      29.92R
CINC-LUNKEN    MOSUNNY   66  65  96 SW5       29.92R
HAMILTON       SUNNY     66  66 100 CALM      29.92R FOG
DAYTON         MOSUNNY   68  63  84 SW9       29.91R
WRIGHT-PAT AFB SUNNY     67  64  91 S5        29.90S
DAYTON GENERAL MOSUNNY   66  65  96 S5        29.90S
WILMINGTON     PTSUNNY   64  62  93 SW5       29.92R
$$

OHZ036-037-039>041-045>050-054>059-063>069-073>076-082>088-201300-
  CENTRAL AND SOUTHEAST OHIO

CITY           SKY/WX    TMP DP  RH WIND       PRES   REMARKS
COLUMBUS       PTSUNNY   70  65  84 S6G32     29.90R
OSU AIRPORT    PTSUNNY   68  64  87 S5        29.90R
BOLTON FIELD   MOSUNNY   64  64 100 S5        29.90S
RICKENBACK AFB MOSUNNY   66  62  85 SW5       29.90R
NEWARK         PTSUNNY   70  66  87 S6        29.89R FOG
MARION         MOSUNNY   68  66  93 S5        29.89R FOG
LANCASTER      MOSUNNY   68  65  90 VRB3      29.91R
ZANESVILLE     CLOUDY    68  65  90 NE5       29.90S
NEW PHILLY     CLOUDY    66  65  96 S5        29.91F
$$



USA.gov is the U.S. government's official web portal to all federal, state and local government web resources and services.